User: anonymous   Login
Location: Dappach
(48.9767°N, 9.6998°E)
Time: 17:39:49
(UTC+00:00)
Language:

SL-27 R/B - Orbit

View from above orbital plane
View from above orbital plane
View from above satellite
View from above satellite

Ground track
Ground track

The orbit data is extracted from the following two-line orbital elements,

1 40354U 14084B   24196.14451271  .00084884  00000-0  45557-3 0  9991
2 40354  74.7210 150.7109 0017663 280.4245  79.4996 15.79700288538793
Epoch (UTC): 14 July 2024 03:28:05
Eccentricity: 0.0017663
inclination: 74.7210°
perigee height: 319 km
apogee height: 343 km
right ascension of ascending node: 150.7109°
argument of perigee: 280.4245°
revolutions per day: 15.79700288
mean anomaly at epoch: 79.4996°
orbit number at epoch: 53879

The dashed part of the orbit path shows where the satellite is in the earth's shadow,  

DLR